DW4433 Weather Reports


Display with metric or nautical units.
time (UTC)temp
F
wind
direction
speed
MPH
gust
MPH
rain 1hr
in
rain 24hr
in
rain mn
in
humidity
%
barometer
mb
20260507043055 49 322 0.0 0.0 0.00 0.00 0.00 100 1014.9
20260507041551 49 324 0.0 0.0 0.00 0.00 0.00 100 1014.8
20260507040017 49 324 0.0 0.0 0.00 0.00 0.00 100 1014.8
20260507034516 48 326 0.0 0.0 0.00 0.00 0.00 100 1014.8
20260507033006 49 326 0.0 0.0 0.00 0.00 0.00 100 1014.7
20260507031502 49 326 0.0 0.0 0.00 0.00 0.00 100 1014.7
20260507030059 49 326 0.0 0.0 0.00 0.00 0.00 100 1014.7
20260507024608 50 326 0.0 0.0 0.00 0.00 0.00 100 1014.7
20260507023019 50 326 0.0 0.0 0.00 0.00 0.00 100 1014.6
20260507021516 50 326 0.0 0.0 0.00 0.00 0.00 100 1014.5
20260507020008 50 326 0.0 0.0 0.00 0.00 0.00 100 1014.4
20260507014508 50 326 0.0 0.0 0.00 0.00 0.00 100 1014.4
20260507013100 50 326 0.0 0.0 0.00 0.00 0.00 100 1014.5
20260507011555 51 326 0.0 0.0 0.00 0.00 0.00 100 1014.5
20260507010049 51 326 0.0 0.0 0.00 0.00 0.00 100 1014.5
20260507004546 51 326 0.0 0.0 0.00 0.00 0.00 100 1014.4
20260507003040 51 326 0.0 0.0 0.00 0.00 0.00 100 1014.4
20260507001535 51 326 0.0 0.0 0.00 0.00 0.00 100 1014.4
20260507000101 51 325 0.0 0.0 0.00 0.00 0.00 100 1014.4
20260506234602 51 326 0.0 0.0 0.00 0.00 0.00 100 1014.4
20260506233054 51 325 0.0 0.0 0.00 0.00 0.00 100 1014.4
20260506231555 51 326 0.0 0.0 0.00 0.00 0.00 100 1014.4
20260506230053 51 326 0.0 0.0 0.00 0.00 0.00 100 1014.4
20260506224539 51 326 0.0 0.0 0.00 0.00 0.00 100 1014.4
20260506223029 51 326 0.0 0.0 0.00 0.00 0.00 100 1014.3
20260506221511 51 326 0.0 0.0 0.00 0.00 0.00 100 1014.2
20260506220006 52 326 0.0 0.0 0.00 0.00 0.00 100 1014.2
20260506214532 52 326 0.0 0.0 0.00 0.00 0.00 100 1014.2
20260506213030 52 326 0.0 0.0 0.00 0.00 0.00 100 1014.2
20260506211531 52 326 0.0 0.0 0.00 0.00 0.00 100 1014.0
20260506210019 52 360 0.0 0.0 0.00 0.00 0.00 100 1013.9
20260506204513 52 360 0.0 0.0 0.00 0.00 0.00 100 1013.9
20260506203018 52 20 0.0 0.0 0.00 0.00 0.00 100 1013.9
20260506201610 52 21 0.0 0.0 0.00 0.00 0.00 100 1013.8
20260506200030 53 21 0.0 0.0 0.00 0.00 0.00 100 1013.6
20260506194529 53 22 0.0 0.0 0.00 0.00 0.00 100 1013.4
20260506193019 54 20 0.0 1.0 0.00 0.00 0.00 100 1013.3
20260506191515 54 53 0.0 1.0 0.00 0.00 0.00 2 1013.1
20260506190009 55 26 0.0 2.0 0.00 0.00 0.00 17 1013.1
20260506184506 56 38 0.0 5.0 0.00 0.00 0.00 30 1012.9
20260506183104 56 47 0.0 0.0 0.00 0.00 0.00 40 1012.7
20260506181554 57 47 0.0 0.0 0.00 0.00 0.00 45 1012.6
20260506180053 57 47 0.0 1.0 0.00 0.00 0.00 47 1012.4
20260506174547 57 40 0.0 1.0 0.00 0.00 0.00 46 1012.3
20260506173048 57 57 0.0 2.0 0.00 0.00 0.00 47 1012.3
20260506171539 57 44 0.0 0.0 0.00 0.00 0.00 49 1012.2
20260506170034 57 45 0.0 1.0 0.00 0.00 0.00 49 1012.0
20260506164526 58 51 0.0 0.0 0.00 0.00 0.00 49 1012.0
20260506163020 58 52 0.0 0.0 0.00 0.00 0.00 49 1012.1
20260506161516 59 52 0.0 0.0 0.00 0.00 0.00 50 1012.0
20260506160010 59 47 0.0 0.0 0.00 0.00 0.00 51 1012.0
20260506154506 59 48 0.0 0.0 0.00 0.00 0.00 51 1012.1
20260506153104 60 53 0.0 2.0 0.00 0.00 0.00 51 1012.1
20260506151556 60 38 0.0 0.0 0.00 0.00 0.00 51 1012.0
20260506150051 60 63 0.0 2.0 0.00 0.00 0.00 48 1012.0
20260506144559 61 29 0.0 0.0 0.00 0.00 0.00 47 1011.9
20260506143025 62 36 0.0 2.0 0.00 0.00 0.00 46 1011.9
20260506141510 63 243 0.0 0.0 0.00 0.00 0.00 42 1011.8
20260506140002 63 278 0.0 0.0 0.00 0.00 0.00 45 1011.9
20260506134557 62 273 0.0 1.0 0.00 0.00 0.00 46 1012.0
20260506133052 64 332 0.0 2.0 0.00 0.00 0.00 43 1012.0
20260506131549 63 63 0.0 2.0 0.00 0.00 0.00 45 1011.9
20260506130041 63 321 0.0 2.0 0.00 0.00 0.00 45 1012.0
20260506124537 63 11 0.0 0.0 0.00 0.00 0.00 47 1011.9
20260506123034 64 36 0.0 4.0 0.00 0.00 0.00 46 1011.9
20260506121528 64 27 0.0 2.0 0.00 0.00 0.00 46 1011.9
20260506120033 63 329 0.0 1.0 0.00 0.00 0.00 48 1012.0
20260506114517 63 242 0.0 1.0 0.00 0.00 0.00 47 1012.1
20260506113025 63 333 0.0 0.0 0.00 0.00 0.00 48 1012.1
20260506111508 63 355 0.0 1.0 0.00 0.00 0.00 50 1012.1
20260506110005 63 55 0.0 4.0 0.00 0.00 0.00 48 1012.0
20260506104600 63 64 0.0 0.0 0.00 0.00 0.00 49 1012.0
20260506103056 62 325 0.0 0.0 0.00 0.00 0.00 50 1012.1
20260506101549 61 250 0.0 2.0 0.00 0.00 0.00 49 1012.1
20260506100042 61 11 0.0 4.0 0.00 0.00 0.00 49 1012.1
20260506094537 61 45 0.0 1.0 0.00 0.00 0.00 48 1012.2
20260506093033 59 319 0.0 2.0 0.00 0.00 0.00 48 1012.2
20260506091531 59 256 0.0 0.0 0.00 0.00 0.00 39 1012.1
20260506090033 58 286 0.0 0.0 0.00 0.00 0.00 27 1012.1
20260506084520 58 287 0.0 0.0 0.00 0.00 0.00 18 1012.0
20260506083015 56 241 0.0 0.0 0.00 0.00 0.00 100 1011.9
20260506081508 53 280 0.0 0.0 0.00 0.00 0.00 100 1011.9
20260506073058 51 268 0.0 0.0 0.00 0.00 0.00 100 1012.0
20260506071548 50 282 0.0 0.0 0.00 0.00 0.00 100 1011.9
20260506061544 49 43 0.0 0.0 0.00 0.00 0.00 100 1011.8
20260506044556 49 270 0.0 0.0 0.00 0.00 0.00 100 1011.5